Regional Weather Roundup
Issued by NWS

Home | Current Version | Previous Version | Graphics & Text | Print | Product List | Glossary On
Versions: 1 2 3 4 5 6 7 8 9 10 11 12 13 14 15 16 17 18 19 20 21 22 23 24 25 26 27
000
ASUS45 KCYS 201310
RWRWY

WYOMING REGIONAL WEATHER ROUNDUP
NATIONAL WEATHER SERVICE CHEYENNE WY
600 AM MST FRI JAN 20 2017

NOTE:  "FAIR" INDICATES FEW OR NO CLOUDS BELOW 12,000 FEET
WITH NO SIGNIFICANT WEATHER AND/OR OBSTRUCTIONS TO VISIBILITY.

WYZ001-201400-
YELLOWSTONE NATIONAL PARK

CITY           SKY/WX    TMP DP  RH WIND       PRES   REMARKS
LK YELLOWSTONE   N/A     19  18  95 CALM      29.55S
W YELLOWSTONE  NOT AVBL

$$
WYZ002>013-054>058-071-098>099-201400-
NORTHERN WYOMING

CITY           SKY/WX    TMP DP  RH WIND       PRES   REMARKS
JACKSON        CLOUDY    21  19  93 CALM      29.55F
CODY           FAIR      26  21  81 NE8       29.49S WCI  18
GREYBULL       CLOUDY    26  21  81 SW3       29.51R
WORLAND        CLOUDY    27  25  92 E7        29.50F WCI  19
SHERIDAN       CLOUDY    34  31  88 SW10      29.48S WCI  26
BUFFALO        CLOUDY    32  26  78 NW5       29.46S WCI  27
GILLETTE       CLOUDY    31  28  89 NW5       29.45S WCI  26
HULETT         FAIR      30  23  74 CALM      29.45S
NEWCASTLE      FAIR      23  19  86 N12       29.43S WCI  12

$$
WYZ014>020-022>026-101>103-201400-
CENTRAL WYOMING

CITY           SKY/WX    TMP DP  RH WIND       PRES   REMARKS
BIG PINEY      FOG        0  -2  91 N5        29.56S VSB 1/4 WCI -10
PINEDALE       HAZE       0  -6  78 CALM      29.56S VSB 1/4
DUBOIS         NOT AVBL
LANDER         CLOUDY    21  16  81 CALM      29.49S
RIVERTON       CLOUDY    19  14  81 E8        29.50F WCI   9
CASPER         LGT SNOW  30  27  88 SW9       29.47S FOG     WCI  22
DOUGLAS        CLOUDY    34  26  72 NW13      29.45F WCI  25

$$
WYZ021-027>030-104>119-201400-
SOUTHERN WYOMING

CITY           SKY/WX    TMP DP  RH WIND       PRES   REMARKS
EVANSTON       CLOUDY    22  17  81 W3        29.57F
ROCK SPRINGS   FOG       20  18  92 SW7       29.56R VSB 1/4 WCI  11
RAWLINS        CLOUDY    25  21  85 SW13      29.51S WCI  14
LARAMIE        CLOUDY    22  20  92 E5        29.45F WCI  16
CHEYENNE       CLOUDY    36  23  59 W14G22    29.46R WCI  27
TORRINGTON     FAIR      27  21  78 NW8       29.44R WCI  19

$$




USA.gov is the U.S. government's official web portal to all federal, state and local government web resources and services.